Flag for Canada Weather past 2 weeks in Longueuil, Quebec, Canada

Now
65 °F

Mild.


Feels Like: 65 °F
Forecast: 62 / 73 °F
Wind: 6 mph from South

Location: Mc Tavish

Current Time: May 25, 2015 at 8:12:05 AM

Latest Report: May 25, 2015 at 7:00 AM


Visibility: N/A

Pressure: 30.09 "Hg

Humidity: 50%

Dew point: 46 °F

Location of LongueuilLocation

Historic Weather in Longueuil — Graph

°F

Longueuil temperature yesterday

Maximum temperature yesterday: 77 °F (at 5:00 PM)
Minimum temperature yesterday: 56 °F (at 5:00 AM)
Average temperature yesterday: 65 °F

Past Weeks' High & Low Weather Summary

 TemperatureHumidityPressure
High83 °F (May 18, 4:00 PM)100% (May 12, 12:00 AM)30.39 "Hg (May 12, 12:00 AM)
Low38 °F (May 23, 5:00 AM)17% (May 15, 6:00 PM)29.57 "Hg (May 12, 4:00 PM)
Average59 °F54%30.01 "Hg
* Reported May 10 7:00 AM — May 25 7:00 AM, Longueuil, Weather by CustomWeather, © 2015

Note: Actual official high and low records may vary slightly from our data, if they occured in-between our weather recording intervals... More about our weather records

Advertising

Longueuil weather history for previous 24 hours

 ConditionsComfort  
Time TempWeatherWind HumidityBarometerVisibility
7:00 AM
Mon, May 25
65 °FMild.6 mph50%30.09 "HgN/A
6:00 AM65 °FMild.6 mph49%30.09 "HgN/A
5:00 AM64 °FMild.6 mph49%30.07 "HgN/A
4:00 AM65 °FMild.6 mph45%30.06 "HgN/A
3:00 AM65 °FMild.6 mph43%30.06 "HgN/A
2:00 AM66 °FMild.6 mph42%30.06 "HgN/A
1:00 AM65 °FMild.6 mph42%30.06 "HgN/A
12:00 AM68 °FMild.5 mph37%30.06 "HgN/A
11:00 PM
Sun, May 24
69 °FMild.5 mph34%30.05 "HgN/A
10:00 PM71 °FMild.5 mph31%30.04 "HgN/A
9:00 PM72 °FMild.6 mph30%30.03 "HgN/A
8:00 PM74 °FMild.7 mph27%30.01 "HgN/A
7:00 PM75 °FMild.6 mph28%30.00 "HgN/A
6:00 PM77 °FMild.7 mph29%30.00 "HgN/A
5:00 PM77 °FPleasantly warm.7 mph29%30.01 "HgN/A
4:00 PM77 °FPleasantly warm.8 mph30%30.02 "HgN/A
3:00 PM74 °FMild.7 mph33%30.04 "HgN/A
2:00 PM73 °FMild.8 mph35%30.05 "HgN/A
1:00 PM69 °FMild.7 mph40%30.07 "HgN/A
12:00 PM65 °FMild.7 mph43%30.09 "HgN/A
11:00 AM61 °FRefreshingly cool.8 mph48%30.12 "HgN/A
10:00 AM59 °FRefreshingly cool.7 mph48%30.12 "HgN/A
9:00 AM57 °FRefreshingly cool.8 mph48%30.12 "HgN/A
8:00 AM56 °FRefreshingly cool.8 mph44%30.12 "HgN/A
Weather by CustomWeather, © 2015

See weather overviewHow to use our weather pages